Regional Weather Roundup
Issued by NWS

Home | Current Version | Previous Version | Text Only | Print | Product List | Glossary Off
Versions: 1 2 3 4 5 6 7 8 9 10 11 12 13 14 15 16 17 18 19 20 21 22 23 24 25 26 27 28 29 30 31 32 33 34 35 36 37 38 39 40 41 42 43 44 45 46 47 48 49 50

924
ASUS44 KLIX 032205
RWRLA
LOUISIANA WEATHER ROUNDUP
NATIONAL WEATHER SERVICE NEW ORLEANS LA
400 PM CST TUE MAR 03 2015

NOTE: "FAIR" INDICATES FEW OR NO CLOUDS BELOW 12,000 FEET WITH NO
      SIGNIFICANT WEATHER AND/OR OBSTRUCTIONS TO VISIBILITY.
      SKY/WX - SKY CONDITION AND SIGNIFICANT WEATHER.
      TMP - AIR TEMPERATURE.    DP   - DEWPOINT TEMPERATURE.
      RH  - RELATIVE HUMIDITY.  PRES - PRESSURE.
      HX  - HEAT INDEX.         WCI  - WIND CHILL INDEX.

*  THESE STATIONS ARE NOT NWS OR FAA STATIONS AND ARE NOT UNDER
   NWS QUALITY CONTROL.

LAZ040-048-061>063-065-066-069-032300-
SOUTHEAST LOUISIANA

CITY           SKY/WX    TMP DP  RH WIND       PRES   REMARKS
N.O. AUDUBON   NOT AVBL
N.O. INTL ARPT PTSUNNY   75  65  70 S16       30.00F
N.O. LAKEFRONT CLOUDY    79  66  64 S14G24    30.01F
SLIDELL        CLOUDY    75  68  78 SE10G26   30.01F
BATON ROUGE    CLOUDY    72  69  90 S10G20    29.97F
BOOTHVILLE     SUNNY     76  68  76 SE12G23   30.03F
BELLE CHASSE   PTSUNNY   78  64  61 S17       30.01F
BOGALUSA*        N/A     75  66  72 S10       30.02F
GALLIANO*      CLOUDY    78  67  68 SE10G22   30.01F
NEW ROADS*     CLOUDY    79  65  63 S9        29.95F
GONZALES*      CLOUDY    73  73 100 W7        29.98F
HAMMOND*       CLOUDY    75  64  69 S15       30.00
HOUMA*         PTSUNNY   77  70  78 SE14G22   30.00F
PORT FOURCHON* MOCLDY    73  68  83 SE9       30.04F

$$

LAZ041-044-053-054-032300-
SOUTHWEST LOUISIANA

CITY           SKY/WX    TMP DP  RH WIND       PRES   REMARKS
LAKE CHARLES   PTSUNNY   74  67  78 SW14      29.94F
LAFAYETTE      MOSUNNY   77  67  71 S16G25    29.96F
PATTERSON      PTSUNNY   73  70  88 S14       29.99S
SALT POINT       N/A     71  68  90 VRB6      29.97F
NEW IBERIA     CLOUDY    76  69  79 SW18G25   29.98F
CHENAULT AIRPK NOT AVBL

$$

LAZ027-028-032300-
CENTRAL LOUISIANA

CITY           SKY/WX    TMP DP  RH WIND       PRES   REMARKS
FORT POLK      MOSUNNY   75  63  65 SW23G29   29.91S
ALEXANDRIA INT PTSUNNY   75  65  70 S10       29.91F
ALEXANDRIA     PTSUNNY   79  65  62 SW13      29.92F

$$

LAZ001-002-032300-
NORTHWEST LOUISIANA

CITY           SKY/WX    TMP DP  RH WIND       PRES   REMARKS
SHREVEPORT     CLOUDY    67  62  84 SE8       29.89F
BARKSDALE AFB  CLOUDY    65  64  96 S9        29.89F
DTN SHREVEPORT CLOUDY    64  59  83 SE7       29.90F

$$

LAZ014-016-032300-
NORTHEAST LOUISIANA

CITY           SKY/WX    TMP DP  RH WIND       PRES   REMARKS
MONROE         PTSUNNY   73  65  75 S10G20    29.92F
TALLULAH       PTSUNNY   77  66  68 SW9G18    29.95F

$$




USA.gov is the U.S. government's official web portal to all federal, state and local government web resources and services.